EUTELSAT 36D

Last updated on Tue Sep 16 2025 00:02:51 GMT+0000 (Coordinated Universal Time)

1 59346U 24059A 25258.59168265 .00000139 00000+0 00000+0 0 9992 2 59346 0.0136 182.0372 0000280 64.3746 357.2482 1.00270813 5392
UTC large
Height (km)
Speed (km/s)
/
Latitude / Longitude
Inclination (degrees)
Orbital Period (minutes)
Azimuth
Elevation
Range (km)
Doppler Factor

Next 0 passes for location: London (51.5072 / 0.1276)

Sorry there are no passes over London.